GFSFLT1_2pvu_pres_204.txt.gz
Presure
150 156 131 161 163 181 171 174 176 168 172 177 172 166 162 143 173 174 166 168 173 178 179 172 198 192 188 186 187 155 181 173
182 181 182 181 158 145 188 151 157 173 172 167 173 177 141 175 173 172 180 166 181 182 190 174 184 193 186 182 184 185 178 178
171 156 181 157 134 184 154 189 148 154 153 175 173 176 177 176 182 160 174 180 144 170 163 172 174 185 191 192 186 185 182 181
175 164 160 186 184 188 168 201 177 145 198 141 166 146 154 175 172 178 175 174 168 159 181 171 189 176 179 173 190 180 186 184
178 181 152 189 173 186 208 214 153 211 156 164 189 134 181 174 170 178 179 181 178 182 174 170 169 182 171 179 187 184 162 181
197 197 212 194 184 181 211 181 186 170 164 179 172 181 141 143 144 151 157 173 176 154 191 176 179 189 196 167 172 178 187 186
206 217 211 146 207 145 153 254 177 179 185 162 164 157 176 146 175 155 163 180 165 170 174 183 185 173 169 182 185 177 169 173
202 178 134 102 205 208 205 141 148 165 173 168 170 181 150 139 175 141 153 178 146 157 180 169 179 172 162 173 171 182 176 185
84 181 192 193 200 230 200 231 233 179 170 171 176 167 185 182 158 120 176 156 163 170 168 170 171 167 149 160 179 181 186 166
77 212 247 232 200 194 195 219 169 159 174 165 77 183 172 162 170 127 168 171 192 195 196 165 134 173 165 171 181 156 172 171
246 248 250 258 236 259 226 239 215 187 173 154 163 170 183 157 166 178 198 175 150 180 193 171 171 186 176 180 172 170 154 164
273 294 273 278 244 269 252 244 236 207 183 180 194 164 186 162 187 182 181 181 178 182 176 175 180 173 173 169 171 180 164 173
305 300 298 298 304 258 254 246 235 225 183 212 173 176 170 174 171 172 170 170 178 170 174 184 195 193 184 177 174 166 171 179
316 298 299 289 285 266 241 254 233 225 230 224 202 182 169 204 181 175 177 182 173 172 170 193 181 189 194 192 186 186 192 192
313 300 299 296 193 276 264 257 239 223 216 218 212 220 214 204 234 235 216 191 186 209 205 193 202 204 197 192 185 189 192 193
317 309 306 309 303 296 274 258 242 226 243 212 213 221 197 208 216 152 240 234 212 194 210 165 168 207 205 198 201 200 199 196
303 296 294 295 302 297 286 254 245 235 224 231 219 218 211 209 235 235 182 208 205 249 222 219 217 208 205 207 206 204 202 200
298 293 289 286 290 300 290 124 137 245 234 237 227 167 219 218 224 220 221 150 158 191 198 203 211 195 212 213 214 212 205 197
298 295 295 292 300 297 301 231 267 249 238 212 227 222 224 227 224 220 222 224 222 225 222 213 207 206 204 208 214 215 208 210

GFSFLT1_2pvu_pres_210.txt.gz
Presure
161 175 157 198 164 212 160 139 113 166 135 130 154 153 141 162 139 143 170 168 154 148 164 165 180 177 178 185 177 176 161 168
161 163 140 164 165 134 161 277 144 210 192 150 170 150 163 174 140 171 180 126 194 205 171 143 157 164 158 183 167 176 175 171
206 178 189 150 167 202 137 173 208 186 141 195 150 195 137 148 190 165 154 162 163 205 197 171 159 160 167 178 159 173 181 172
197 188 176 165 167 197 206 168 177 219 209 198 171 193 150 139 182 169 125 166 153 183 190 175 175 180 173 175 165 166 169 174
183 198 182 199 181 153 195 212 169 184 171 192 170 208 212 154 153 208 131 173 138 185 165 187 183 173 171 164 174 160 147 150
198 162 195 189 193 191 220 215 174 191 209 211 184 165 223 204 184 211 172 152 134 195 131 140 176 185 169 184 189 184 167 180
178 179 181 171 191 175 214 187 211 170 192 230 170 131 164 197 193 178 192 163 170 162 157 157 153 163 167 168 132 184 188 188
191 195 74 202 169 176 176 199 180 81 197 209 184 160 183 146 114 209 169 171 156 143 167 155 171 134 146 161 163 140 146 176
190 181 206 201 203 158 207 76 80 78 87 200 189 198 192 177 187 191 131 177 162 162 144 155 173 165 151 147 194 171 175 128
196 211 220 203 184 202 183 201 212 203 210 214 215 215 199 220 224 182 136 203 186 162 179 157 175 151 174 160 143 185 162 161
215 212 207 203 204 201 196 209 197 215 214 205 221 158 227 243 201 191 170 198 197 152 183 166 158 198 149 133 166 157 158 132
211 218 215 215 198 216 228 240 247 264 345 302 255 334 191 302 126 170 189 227 179 168 172 164 179 159 162 157 169 168 176 129
220 222 222 220 242 247 262 371 377 360 372 352 347 337 334 311 307 184 277 196 205 185 154 171 172 175 161 157 166 174 162 172
220 228 236 246 396 378 362 366 363 352 332 333 340 314 307 312 290 301 235 209 191 225 180 193 171 176 169 168 177 178 155 172
247 259 360 378 360 371 364 356 344 335 317 323 314 312 325 313 301 288 209 240 175 205 180 184 190 180 168 175 174 184 181 190
297 379 377 359 349 348 344 339 332 334 326 320 309 308 308 310 279 291 239 203 230 190 178 184 192 178 168 176 178 181 171 164
370 354 346 338 329 329 330 322 331 329 312 305 302 303 304 298 271 269 238 237 225 172 167 210 201 165 174 188 193 181 184 187
352 347 341 330 325 317 315 317 320 324 320 319 304 296 313 306 278 266 247 230 226 196 226 207 173 203 205 197 191 193 190 194
352 344 338 331 327 241 315 313 308 315 314 312 318 322 318 313 260 279 246 229 234 237 209 219 205 199 212 183 185 187 185 178

GFSFLT1_2pvu_pres_216.txt.gz
Presure
169 165 176 162 166 163 166 173 194 164 163 166 169 186 162 166 126 161 183 146 193 119 187 159 165 154 136 142 155 168 170 182
176 178 173 160 162 169 163 163 162 177 164 210 182 164 204 186 188 167 206 147 181 192 157 192 179 181 151 158 166 158 167 169
171 169 167 172 166 173 155 163 170 173 183 191 196 175 170 169 172 176 160 152 167 125 149 160 180 178 135 168 157 172 140 131
168 157 162 161 164 163 186 162 162 178 175 199 204 172 171 182 182 179 177 179 195 191 149 161 153 132 188 190 154 128 163 172
167 166 167 168 157 157 77 137 89 164 164 112 120 173 169 183 173 190 203 183 181 178 211 209 186 184 163 165 186 189 175 171
161 152 151 156 176 153 166 206 146 172 209 202 208 162 171 179 175 186 162 172 207 163 230 170 173 190 174 142 181 172 168 158
169 170 132 196 193 191 201 193 193 202 187 183 189 203 200 203 192 176 181 208 168 210 191 211 201 198 189 196 158 162 133 162
194 163 177 191 195 173 186 185 186 203 189 192 198 114 199 173 79 82 211 139 172 157 196 195 170 197 205 175 168 170 155 157
193 200 157 183 183 191 197 199 189 168 205 185 216 181 207 113 205 177 209 209 226 223 194 194 229 197 155 217 179 164 130 195
200 188 187 180 193 192 200 190 198 203 212 169 205 221 194 180 202 182 181 231 183 232 230 243 200 153 199 186 193 192 139 183
203 186 202 190 205 211 183 197 203 229 197 195 226 228 238 244 245 215 207 211 220 209 231 214 220 213 204 214 193 160 178 134
198 203 196 203 198 179 204 213 229 219 237 229 230 243 250 235 241 229 241 240 252 248 210 251 236 233 218 207 207 211 198 195
209 203 199 214 197 211 213 231 219 243 242 239 241 245 250 236 286 288 292 276 288 320 292 277 277 274 274 216 216 217 215 203
199 205 212 222 213 214 238 248 204 237 240 247 255 274 305 335 339 374 398 401 398 397 394 399 387 384 406 367 218 224 202 219
221 223 219 212 216 245 245 237 247 259 263 293 330 372 393 379 378 379 377 375 372 365 360 357 363 344 356 362 354 234 214 216
225 234 217 227 126 232 254 264 275 346 421 424 414 410 390 374 363 356 354 348 354 346 341 330 325 319 333 342 328 336 286 222
237 231 242 245 254 250 279 433 418 412 398 388 388 381 383 373 355 345 337 334 336 333 323 315 304 311 312 325 319 309 322 311
243 220 263 250 259 457 468 443 424 404 388 375 371 362 379 374 364 344 330 328 326 310 317 304 299 307 308 312 297 288 295 294
262 240 245 265 389 413 410 407 446 437 403 376 365 359 359 386 372 359 333 322 318 313 315 303 300 302 318 310 295 270 261 285

GFSFLT1_2pvu_pres_222.txt.gz
Presure
175 165 161 166 170 169 157 164 172 164 169 161 154 157 152 162 166 177 180 179 182 180 166 200 167 177 169 193 168 170 126 168
180 172 176 167 172 171 173 174 159 152 170 153 142 154 152 155 162 168 168 179 152 137 197 212 162 199 203 185 136 176 199 196
170 171 158 161 130 172 160 161 158 158 160 166 168 166 179 215 160 204 185 171 141 169 192 176 181 179 180 176 172 188 164 186
166 156 152 159 151 145 159 152 151 159 174 152 138 195 197 180 162 184 168 193 200 178 174 178 159 210 169 193 173 223 180 177
156 166 151 153 167 161 163 149 163 106 179 202 194 181 201 187 187 183 187 191 182 204 185 172 172 189 197 188 200 208 208 184
160 166 178 169 146 153 152 163 172 172 175 176 175 187 182 161 206 187 175 199 194 198 182 162 190 157 199 197 183 209 196 220
120 168 166 155 149 168 170 170 166 168 170 182 190 181 181 188 185 177 191 161 180 189 192 187 180 184 192 188 181 198 176 209
178 170 144 149 169 157 162 153 163 171 192 194 179 171 187 193 194 171 186 163 187 191 139 184 196 123 177 194 231 209 187 172
167 151 169 152 173 178 173 169 179 192 179 171 176 191 189 176 200 225 236 217 178 208 203 207 94 219 173 84 161 235 229 220
173 157 164 178 171 172 189 169 189 181 190 190 189 179 204 179 210 258 275 274 269 193 258 255 258 227 237 231 233 234 218 244
161 166 169 166 175 168 179 185 187 183 192 186 192 194 209 282 263 261 253 246 245 244 247 234 242 249 239 237 228 227 248 250
169 177 171 183 185 191 188 194 193 179 198 196 201 232 231 259 230 235 223 229 237 226 228 247 237 220 237 242 252 231 238 230
183 187 190 188 190 191 201 201 190 207 195 219 221 298 252 245 236 235 250 258 259 262 267 277 257 290 293 293 302 311 286 275
173 182 187 199 202 200 193 200 209 207 213 233 273 262 240 243 257 267 279 288 302 304 299 312 308 309 356 258 336 385 384 410
187 171 187 199 196 199 193 209 208 219 222 221 254 239 248 262 273 292 311 348 441 426 474 443 382 368 357 329 334 347 352 372
167 197 208 195 181 207 217 208 221 229 234 232 265 243 262 288 293 307 408 388 380 411 460 412 360 343 323 327 346 345 378 368
199 200 198 196 207 215 212 206 227 230 232 255 245 259 291 296 315 378 386 370 394 394 398 428 366 335 339 318 325 326 354 355
202 197 206 204 214 220 222 206 227 220 235 258 263 297 294 380 369 361 360 374 375 383 367 403 378 372 345 336 323 324 343 331
207 205 190 216 210 219 209 220 222 233 286 267 290 333 372 367 358 375 374 364 369 366 364 365 361 380 350 337 330 327 334 331

GFSFLT1_2pvu_pres_225.txt.gz
Presure
166 170 169 175 170 171 169 162 153 160 162 168 161 161 148 160 162 163 139 170 190 167 161 149 177 159 153 162 175 152 188 208
171 172 164 168 166 169 171 172 158 149 159 158 162 163 159 152 139 170 194 166 181 162 184 201 143 178 166 143 208 203 156 160
180 168 172 169 166 159 167 170 159 169 156 155 160 167 156 162 164 167 178 155 168 182 182 192 192 178 150 162 167 146 161 189
170 172 171 168 165 158 160 165 162 161 158 154 155 158 162 164 159 152 179 197 192 185 173 183 172 183 172 166 189 158 164 188
167 172 164 164 151 168 170 163 145 157 164 161 154 163 150 154 168 193 140 180 181 180 191 158 184 200 190 191 185 170 188 205
170 175 168 155 167 167 163 171 150 170 148 168 154 163 162 174 174 142 186 171 181 191 162 198 215 218 182 189 235 186 210 174
175 177 155 162 169 170 172 162 159 156 156 160 161 169 176 155 172 167 190 185 175 183 192 198 243 254 203 225 209 95 182 208
170 189 162 161 162 169 175 166 162 159 163 173 155 176 176 169 182 181 189 181 170 200 183 250 261 259 215 251 135 240 205 211
169 154 160 153 151 170 153 152 166 173 172 168 179 182 180 178 191 190 187 183 203 207 206 248 224 222 208 215 206 205 195 254
158 166 165 178 182 162 168 172 163 178 177 168 185 160 181 179 175 185 183 177 211 199 252 229 228 250 254 245 249 237 206 203
171 175 175 180 172 173 172 163 158 183 178 175 181 171 207 190 191 184 184 197 203 237 254 258 261 265 260 260 264 272 274 225
179 174 159 160 174 153 181 159 170 182 183 174 179 197 204 207 204 207 198 221 241 283 275 267 274 278 271 270 266 271 281 280
183 159 167 180 177 189 187 181 171 190 191 191 203 207 201 212 182 235 223 244 290 282 278 282 290 289 293 292 300 307 221 294
164 163 171 155 192 110 179 169 207 199 208 198 214 196 201 212 221 224 239 288 283 297 302 315 317 341 406 410 368 355 345 331
152 188 184 193 181 204 180 199 204 196 213 217 212 200 211 224 244 232 252 298 307 316 336 385 377 380 383 381 378 343 322 309
177 175 193 172 200 186 193 187 215 211 211 220 201 203 232 221 218 245 309 307 332 388 375 361 361 361 394 401 394 417 337 326
181 198 191 205 179 190 189 207 220 212 225 204 223 207 233 238 249 302 308 382 377 366 352 361 395 384 374 375 378 393 358 339
196 176 191 191 199 189 202 215 213 208 224 209 205 238 240 240 261 333 380 366 361 368 405 398 391 365 368 374 359 365 350 354
174 191 182 188 190 191 210 206 206 226 211 208 235 234 232 257 371 376 362 353 404 402 398 403 393 356 351 358 353 386 350 329

GFSFLT1_2pvu_pres_228.txt.gz
Presure
177 172 171 168 166 179 167 170 161 164 158 179 173 166 157 157 158 156 155 154 141 146 144 190 180 135 165 158 133 176 164 173
191 177 169 168 168 176 166 175 109 156 172 158 172 161 180 166 160 154 153 162 165 153 153 178 145 174 125 158 184 180 165 174
178 177 176 177 172 166 173 165 170 172 154 167 160 165 161 158 166 167 171 154 147 153 152 158 193 197 166 187 195 199 172 164
174 185 185 178 176 170 174 170 164 162 171 168 161 161 160 153 151 149 149 173 175 165 177 176 171 172 180 185 172 170 198 201
172 169 162 168 181 176 173 169 162 172 162 164 171 165 154 138 156 146 164 161 179 189 154 181 174 178 186 196 190 172 191 182
179 187 187 183 167 170 172 168 160 155 162 162 158 153 152 148 163 174 174 174 168 142 180 188 192 198 191 172 194 171 183 214
174 180 183 172 171 166 170 162 158 163 180 146 150 168 165 167 157 172 160 152 171 173 185 175 167 164 161 176 187 208 204 214
180 169 175 162 171 167 167 177 179 161 173 164 164 160 170 172 153 153 168 173 155 181 163 162 168 186 203 200 215 218 214 252
187 161 176 172 165 169 160 172 171 165 163 154 166 177 180 168 165 210 150 182 189 163 163 177 190 198 210 211 198 196 260 264
181 176 178 174 180 180 181 169 171 159 146 151 179 152 197 159 146 201 195 162 161 191 191 187 183 206 199 257 259 271 274 270
188 185 176 176 179 176 176 180 152 145 144 170 170 163 160 162 158 162 160 214 206 177 183 171 174 195 206 290 297 293 286 283
178 187 185 171 169 187 176 154 159 178 166 151 154 199 195 150 207 201 185 208 203 184 195 205 217 270 296 311 319 318 315 312
190 194 171 163 191 186 155 184 155 188 187 193 198 189 211 205 192 216 232 191 181 222 225 238 266 302 315 341 408 397 399 412
177 170 183 181 180 195 166 195 187 153 205 191 185 207 212 190 210 234 201 188 232 236 259 246 254 319 391 387 379 368 353 354
172 174 188 190 179 195 173 175 192 173 208 186 205 197 164 218 216 186 240 220 243 242 246 268 312 390 375 361 354 351 373 381
169 175 198 174 181 177 190 163 196 184 194 169 182 218 210 225 203 197 226 227 224 260 263 295 389 368 353 386 401 390 398 383
178 182 176 193 188 195 166 202 193 189 163 209 212 134 181 216 208 191 233 228 250 295 276 347 368 356 404 391 394 379 380 359
175 194 170 163 190 190 199 195 192 177 191 194 211 213 224 209 196 230 232 222 258 267 341 368 411 405 405 396 378 386 373 353
187 183 188 188 188 190 197 165 181 204 214 191 200 222 221 210 217 235 230 249 274 273 368 415 395 386 390 434 410 389 362 349

GFSFLT1_2pvu_pres_231.txt.gz
Presure
196 186 187 179 182 171 179 167 169 167 140 173 163 171 162 161 161 148 157 174 155 164 167 174 145 167 173 155 147 177 180 179
192 170 171 184 185 161 173 177 176 167 179 162 177 162 165 171 139 185 166 164 164 166 153 161 146 155 154 149 175 164 165 126
194 180 171 173 170 176 185 172 174 180 176 169 167 169 164 165 173 164 166 170 165 155 154 167 178 161 156 171 147 165 155 177
189 192 194 189 182 185 176 188 171 164 175 173 171 168 161 158 163 161 152 152 145 154 159 157 162 174 165 141 169 161 170 183
184 188 186 185 181 185 180 181 166 174 169 169 178 153 155 157 184 162 146 141 161 176 176 163 188 142 170 174 162 194 203 168
182 185 176 182 173 170 166 174 170 179 168 172 161 158 160 156 144 153 168 173 158 170 192 157 142 152 202 184 190 159 171 178
177 171 172 183 173 178 177 165 164 172 182 160 163 152 155 145 171 136 166 167 169 153 154 147 174 174 161 196 157 180 172 176
182 183 185 170 179 183 179 177 178 166 188 150 184 164 172 159 162 164 159 169 156 161 160 182 188 171 161 190 173 179 211 205
174 203 194 191 190 177 171 169 184 181 169 171 185 165 157 194 184 189 186 148 148 159 152 163 160 205 198 174 203 197 238 249
170 178 157 191 186 190 194 195 174 191 175 166 180 160 196 149 173 153 150 144 160 191 177 142 221 176 200 221 195 247 225 263
183 180 179 183 174 203 188 178 177 160 187 169 163 157 193 183 153 150 190 177 183 156 153 175 203 178 192 221 225 259 274 272
168 172 171 200 178 178 172 155 163 179 184 166 182 175 195 181 177 184 151 164 147 166 200 217 163 194 225 248 263 269 278 312
109 178 176 186 168 132 172 174 189 181 167 188 186 153 186 189 169 176 136 154 201 149 205 162 215 237 247 219 280 280 304 384
166 191 171 169 195 188 190 167 179 186 196 162 188 172 206 200 163 167 188 203 189 212 174 222 202 243 251 275 291 314 398 385
170 180 175 169 169 182 173 172 172 188 177 167 189 179 193 181 192 194 186 207 192 196 221 223 237 225 248 296 323 402 381 403
183 175 185 143 176 186 186 172 182 182 187 196 177 194 172 201 156 215 205 190 204 229 231 210 244 254 285 328 402 429 421 419
179 186 180 165 191 169 188 190 189 189 174 195 192 209 196 153 202 211 202 204 225 235 214 239 249 268 334 398 436 409 390 381
187 177 174 178 189 184 190 168 181 199 206 187 195 158 195 205 201 203 190 214 227 238 236 247 265 284 353 425 415 392 377 368
181 184 175 180 179 190 188 180 172 173 201 214 193 188 201 213 220 196 218 216 229 228 239 260 329 386 376 429 408 394 385 377